Theta_e
319 319 319 319 319 319 318 319 319 320 321 321 322 323 324 324 322 316 306 310 315 336 332 313 313 308 307 304 306 304 295 292 306 309 311 316 315 310 315 318 317 318 320 326 334
318 318 318 318 319 318 318 318 319 319 320 320 321 323 323 323 314 310 323 333 335 340 309 306 304 306 302 301 302 298 293 296 306 316 313 315 314 310 313 313 315 319 323 326 332
317 317 318 317 317 318 318 318 318 319 320 320 321 323 322 321 314 318 337 336 341 335 308 308 306 304 298 299 299 297 297 300 306 318 319 318 309 313 312 310 316 317 321 323 324
316 317 317 316 316 317 317 318 318 318 318 319 321 323 322 316 301 312 346 341 341 315 309 306 304 298 296 297 299 295 302 303 312 321 317 314 315 312 314 314 321 323 324 323 321
315 316 315 316 316 317 317 317 317 317 317 318 323 322 316 307 312 326 342 340 318 311 308 305 301 298 297 297 299 298 302 303 314 319 318 319 316 312 310 318 322 323 323 322 319
315 315 315 316 316 316 316 316 316 316 317 319 322 322 313 302 318 325 315 313 307 306 306 306 305 302 300 299 298 302 304 305 310 316 316 316 313 312 312 320 320 321 320 320 319
315 315 315 315 315 316 316 316 315 316 317 320 322 321 312 305 316 316 311 307 307 309 306 308 307 304 302 302 302 305 301 304 304 310 313 314 309 307 315 319 318 319 319 319 319
314 314 314 314 315 315 316 315 315 317 318 322 323 318 307 316 314 311 310 309 309 310 310 311 308 305 301 301 303 300 298 295 302 306 307 313 304 309 316 316 315 317 318 319 318
314 313 313 314 314 315 314 314 316 320 322 324 315 311 308 324 316 315 312 311 311 311 308 314 306 301 303 296 293 295 295 297 302 304 307 307 304 309 315 315 314 315 317 318 318
314 313 313 313 314 314 313 313 317 321 323 323 320 308 312 312 318 319 315 315 310 308 307 305 299 296 294 293 288 291 292 296 299 305 305 307 310 313 311 312 313 314 316 317 316
314 313 312 313 313 312 309 307 300 300 307 302 306 306 312 318 316 317 318 312 309 305 298 300 295 291 295 295 297 296 295 295 299 304 303 307 310 312 313 311 310 312 313 315 316
313 313 313 312 312 311 306 305 304 303 297 305 304 306 311 309 304 308 314 306 302 296 298 296 292 299 300 300 298 298 295 295 300 307 308 307 308 311 313 313 313 311 312 313 315
312 312 312 312 310 308 305 307 308 306 297 304 306 304 304 307 304 305 311 306 301 296 296 294 298 304 302 300 298 296 295 296 297 301 306 306 304 308 313 313 315 313 314 314 314
311 311 311 310 308 304 306 312 313 307 295 303 305 307 306 305 303 310 313 308 301 299 298 296 302 302 300 299 299 293 300 301 300 295 290 305 296 304 308 311 313 316 313 314 314
311 311 311 309 301 303 309 311 312 306 288 310 305 312 307 303 305 306 311 308 302 302 299 297 299 299 297 299 301 298 301 298 300 293 291 292 294 299 305 306 310 314 315 315 318
310 311 310 307 302 306 311 310 305 296 293 306 308 305 301 302 304 306 306 308 309 302 301 300 303 302 301 304 303 303 299 296 294 292 286 291 292 291 298 306 308 314 316 318 314
310 309 307 307 304 308 307 304 293 288 304 300 303 305 301 301 302 303 302 300 298 293 293 298 299 302 304 300 301 298 291 286 285 285 286 293 290 293 300 303 304 305 307 310 307
308 307 306 308 305 308 306 298 286 297 299 304 303 303 299 302 301 302 300 297 301 298 294 292 292 300 305 301 298 296 293 287 282 283 286 292 288 294 303 306 307 306 308 309 315
306 302 304 310 310 309 300 289 291 298 302 300 300 297 297 300 300 299 298 299 301 300 295 293 294 304 306 306 302 298 292 295 289 287 285 289 293 300 305 309 309 309 307 308 316
299 301 305 313 313 306 296 292 296 302 303 303 294 297 293 296 295 295 296 302 302 305 303 299 293 303 307 306 303 299 300 292 288 284 282 287 290 293 300 303 306 305 304 306 317
301 301 309 313 311 301 292 294 300 306 308 302 298 295 296 296 296 295 297 302 305 304 302 300 296 297 303 299 299 298 295 293 291 290 286 284 289 299 300 303 305 306 307 306 318
297 295 309 311 299 298 294 300 305 307 311 308 304 302 298 299 298 298 298 301 311 306 299 302 297 293 297 303 305 301 298 295 289 289 290 289 290 304 304 305 307 308 309 309 311
292 296 308 307 292 292 299 304 306 306 305 304 304 305 304 300 295 300 301 309 310 309 306 305 294 290 293 298 301 297 300 298 295 292 290 287 290 304 307 306 308 308 310 311 311
294 294 300 302 300 296 296 300 302 308 304 304 304 305 302 301 300 298 300 306 308 307 316 308 296 293 289 294 299 298 301 300 295 290 292 292 294 300 303 305 306 307 307 309 310
295 296 298 293 297 296 294 298 298 297 302 303 301 301 300 295 297 297 300 301 305 308 305 302 296 299 301 304 303 300 299 299 296 296 293 297 295 299 305 308 309 306 306 309 310
294 295 297 295 295 294 294 294 297 299 299 299 297 300 299 294 295 294 297 297 298 302 300 299 294 298 295 303 302 299 301 302 300 299 298 298 296 308 309 310 310 310 313 310 311
300 301 297 295 294 292 292 296 297 299 301 301 300 297 296 300 301 298 299 300 300 298 297 297 296 292 289 299 297 292 300 302 301 302 299 294 300 306 305 307 308 309 309 311 314
Wind_Speed
21 21 21 20 20 19 21 20 20 18 16 15 14 11 8 9 10 2 6 12 8 11 3 5 4 2 3 3 5 6 5 5 7 5 9 6 6 6 3 16 2 4 8 12 22
22 23 22 22 22 20 20 20 20 19 16 15 14 10 7 7 2 7 13 10 11 12 5 6 2 6 2 4 3 5 5 10 11 10 8 7 5 12 9 8 4 12 12 12 22
22 22 22 22 23 21 20 19 20 19 17 15 13 10 6 3 3 8 7 15 8 13 2 4 3 4 6 5 5 4 9 5 6 20 23 16 9 4 18 3 20 24 19 15 21
24 24 24 24 25 22 21 20 20 19 18 15 12 6 4 2 1 4 4 15 12 7 2 1 2 4 5 6 6 4 10 9 8 10 9 9 11 9 16 12 21 25 22 17 18
24 24 24 24 23 23 22 22 20 18 16 14 9 2 2 2 10 2 9 10 8 7 6 4 1 3 3 3 3 7 9 2 10 12 15 3 11 13 8 17 18 21 18 17 11
23 24 24 24 24 23 23 22 21 16 14 11 3 3 1 3 5 9 10 7 4 5 5 8 6 5 7 4 2 3 7 11 11 13 8 13 7 14 5 19 19 20 19 15 15
22 23 24 25 26 25 24 23 22 18 14 8 4 3 1 14 2 7 9 9 5 5 2 5 4 5 2 8 1 6 6 9 4 9 10 5 5 8 20 20 22 21 17 16 17
24 23 24 25 26 27 26 25 24 17 8 6 5 2 8 5 6 6 6 4 5 7 6 10 6 6 2 2 9 6 4 5 8 3 5 8 8 9 17 22 21 20 18 18 19
24 24 25 26 26 27 28 28 23 5 4 8 3 2 11 11 7 11 8 7 6 6 6 9 2 1 8 4 7 7 2 2 9 4 2 5 3 13 22 22 22 20 19 18 17
25 25 26 27 27 27 29 22 6 4 3 5 4 4 6 3 5 8 9 9 4 3 5 4 7 3 5 6 4 5 4 3 5 9 3 4 8 12 11 19 21 20 20 20 19
26 27 28 28 29 24 17 5 8 6 2 8 9 6 11 6 7 6 5 7 3 3 4 5 4 6 10 8 7 4 4 8 7 10 5 16 13 22 24 16 17 19 21 20 22
26 27 29 31 30 27 1 4 6 8 12 10 15 15 19 2 7 12 6 6 4 4 2 6 6 13 8 7 6 7 7 10 12 9 3 3 7 6 9 22 23 22 21 23 19
24 25 27 33 35 4 4 4 7 5 3 10 6 6 9 11 9 14 7 6 5 3 4 8 13 1 5 9 6 7 7 6 9 2 5 5 8 4 5 6 8 10 20 23 23
24 24 24 33 5 6 7 9 12 2 5 9 4 8 5 6 5 10 10 8 2 9 6 6 13 8 10 8 5 7 7 6 3 4 2 2 5 5 8 12 10 16 17 22 21
24 23 22 12 6 4 8 10 11 6 4 3 3 4 6 8 1 4 6 4 9 8 6 12 7 8 5 9 4 11 6 4 2 2 4 4 4 10 4 8 12 14 12 16 22
25 24 20 1 2 10 10 13 4 6 4 3 4 5 7 4 4 1 4 4 6 5 2 9 5 6 8 8 5 5 4 8 5 4 3 6 8 7 6 11 8 19 20 20 15
28 28 14 3 6 3 6 5 6 4 7 8 4 4 9 8 5 6 7 6 8 4 6 7 10 8 3 7 7 6 8 5 6 5 8 7 1 10 8 8 11 13 13 18 14
30 28 6 7 5 4 5 6 2 4 1 5 9 5 4 6 6 3 7 5 6 4 4 5 11 4 4 8 10 8 10 7 7 4 7 4 7 7 8 11 12 11 14 6 7
26 4 4 6 7 3 6 4 7 5 4 8 11 6 6 6 4 11 5 7 6 12 11 7 10 8 4 8 8 7 5 9 3 0 3 5 9 8 5 8 11 13 5 8 5
5 5 5 5 8 5 6 5 5 3 8 8 2 4 5 6 6 7 4 1 7 3 4 6 7 7 12 4 3 8 4 2 2 3 7 6 4 6 10 4 10 12 6 3 1
3 5 6 4 5 6 3 6 6 8 9 6 2 3 3 5 3 2 5 8 8 8 2 4 4 9 1 4 8 4 3 2 3 5 7 4 7 8 9 5 2 7 5 5 3
4 4 3 5 4 0 2 4 8 12 14 7 3 2 3 3 4 2 3 4 15 7 8 4 2 2 6 8 4 5 8 5 6 10 4 4 7 7 7 8 2 6 5 7 9
3 5 7 5 1 2 6 6 6 7 6 7 6 2 3 3 4 1 5 7 15 8 5 7 4 4 11 9 7 3 1 4 3 4 4 3 7 7 6 7 8 7 8 9 7
3 4 6 5 1 2 5 5 6 8 2 4 5 8 8 6 3 4 9 5 8 7 10 5 1 5 7 7 2 6 5 3 5 2 5 5 6 10 12 14 11 10 9 10 10
1 4 1 4 4 5 3 4 5 6 4 7 6 8 2 4 6 5 6 7 6 10 8 5 3 3 6 8 7 8 9 7 5 7 7 10 6 6 11 15 17 14 11 10 13
0 3 5 4 4 5 4 4 5 5 3 4 5 6 8 6 2 6 4 4 5 7 5 5 5 5 6 8 5 6 10 8 11 9 8 7 7 9 13 17 21 22 25 23 14
3 4 4 4 4 2 1 6 10 6 4 7 3 3 6 2 5 4 4 6 8 5 2 2 2 4 6 6 14 9 6 6 5 3 4 3 2 10 11 17 18 17 20 22 25
Wind_Direction
351 350 347 344 342 339 336 332 331 331 330 328 323 315 307 308 300 149 244 220 182 179 133 124 193 169 55 264 207 142 94 189 171 202 263 266 54 97 225 133 218 207 132 154 139
350 349 346 342 338 334 332 330 329 329 329 330 323 315 306 319 292 244 240 205 221 163 186 170 176 136 233 230 244 141 139 214 190 209 212 267 169 165 128 139 76 106 131 130 142
348 346 343 338 334 330 330 328 327 328 330 331 323 308 300 302 321 250 211 205 161 169 197 153 137 152 188 177 228 228 226 183 203 203 210 189 183 143 131 168 157 153 165 160 152
347 343 340 336 331 329 327 325 324 326 326 328 318 305 302 237 218 268 218 171 160 169 193 173 103 192 205 196 222 228 251 148 249 206 161 205 139 152 160 181 166 157 164 165 152
342 340 337 332 328 326 324 321 319 320 320 322 317 288 269 349 250 152 102 119 139 157 204 174 210 194 262 235 329 200 271 211 209 192 195 213 180 157 203 149 157 153 164 169 163
339 337 334 329 326 324 323 318 314 315 312 309 288 152 252 287 238 152 130 125 176 183 200 168 210 194 276 242 168 297 285 291 196 187 191 197 217 121 206 146 156 163 169 180 172
336 334 332 328 325 325 321 314 311 310 304 283 192 219 232 237 258 147 149 176 191 197 227 217 215 186 182 328 296 289 314 336 147 210 218 189 97 177 157 155 161 175 175 182 185
336 334 331 328 326 323 319 314 308 305 285 230 179 222 250 252 149 152 177 264 228 225 218 262 244 248 53 299 358 333 39 36 287 103 240 127 221 148 160 158 174 178 183 190 197
335 334 331 328 326 323 317 315 309 301 179 156 155 193 270 303 165 214 167 208 202 249 252 278 273 97 11 55 2 359 259 273 307 239 161 98 148 177 171 174 177 182 185 195 196
335 334 331 327 325 325 320 308 268 116 181 192 257 346 279 258 300 161 201 210 174 268 338 13 46 38 11 70 225 258 341 320 268 291 58 155 162 142 201 188 182 186 190 200 201
336 335 331 327 323 327 337 5 11 354 93 224 238 248 282 312 302 226 203 172 112 96 192 295 69 242 245 202 227 266 245 263 281 267 226 217 181 170 184 192 187 194 195 203 209
336 334 331 326 322 324 259 6 283 257 307 248 238 241 257 348 316 303 112 142 119 207 300 5 245 239 241 256 227 241 243 269 276 245 126 17 234 46 166 195 196 198 197 207 211
333 332 333 324 320 340 296 249 306 357 318 298 219 216 226 148 217 259 147 166 172 215 226 189 246 301 219 263 263 252 203 236 235 299 34 88 337 310 300 239 212 216 208 207 202
330 331 335 328 14 328 295 306 341 26 33 278 223 255 146 175 263 209 190 144 179 210 244 220 265 249 272 261 236 265 207 239 269 74 273 126 253 265 233 223 215 234 200 213 211
329 330 332 326 292 317 262 330 323 59 13 159 189 163 137 151 221 330 152 111 191 223 123 251 285 290 270 239 201 233 203 166 173 106 121 305 101 268 280 295 255 241 232 218 216
326 323 334 113 230 243 306 305 49 42 269 296 148 165 115 251 238 8 154 113 194 215 245 235 243 204 229 261 222 256 22 25 49 67 305 241 155 268 227 223 257 258 253 249 223
323 316 314 235 238 320 329 28 42 146 312 337 349 230 179 197 254 175 186 173 178 138 273 302 278 286 226 314 333 79 55 346 340 336 249 250 323 222 260 250 226 249 238 233 197
323 313 214 214 238 344 26 53 160 269 13 304 343 337 193 20 306 271 158 218 260 184 167 195 306 207 234 190 227 246 157 163 226 221 261 259 249 262 226 273 279 252 254 248 196
321 322 288 257 202 119 69 79 210 225 344 347 324 26 333 39 47 29 321 234 233 185 188 178 253 259 235 253 132 257 183 189 147 322 25 239 299 321 307 333 331 306 248 199 180
327 339 275 268 139 71 73 234 256 277 323 334 314 56 359 333 49 32 316 126 360 88 228 263 267 222 255 171 202 154 194 113 352 211 263 271 272 240 301 311 329 351 29 138 128
4 358 264 122 77 52 161 236 286 286 335 325 0 341 337 347 62 21 279 316 21 327 22 235 159 289 305 203 211 317 348 54 124 139 194 242 264 229 239 247 16 329 322 307 212
356 346 262 17 48 189 197 220 314 312 311 241 158 117 85 30 336 317 229 307 351 341 357 302 152 258 257 284 258 163 188 141 126 286 242 192 252 256 245 236 259 335 310 262 177
343 268 303 100 204 273 292 297 287 357 328 18 342 34 141 109 337 259 326 57 28 41 17 325 335 7 339 345 346 15 324 125 132 87 223 256 282 296 266 266 265 243 250 261 278
356 338 315 33 67 23 343 290 330 330 303 10 9 42 24 40 41 354 352 342 28 28 347 45 24 175 203 236 226 303 315 15 102 65 271 237 293 309 298 302 291 266 250 249 253
180 262 245 323 326 329 306 294 339 344 347 18 35 23 11 16 2 28 358 324 354 40 11 66 268 353 264 267 288 276 277 287 221 208 221 280 265 303 339 336 328 312 285 251 251
14 26 346 287 295 358 340 297 298 302 327 66 54 355 35 95 72 310 353 9 283 326 12 3 289 336 292 295 344 307 311 300 281 278 249 246 265 358 323 328 343 333 334 322 271
310 329 109 283 329 31 338 342 314 311 100 106 106 37 10 20 275 235 218 222 235 258 284 264 211 10 257 325 330 314 220 250 306 4 289 344 28 329 337 340 332 343 348 334 329